Powrót do katalogu

CZ-6A DEB

AktywnyPO
NORAD 60656·DEBRIS·🇨🇳 China

Wystrzelony Aug 6, 2024 z Taiyuan Satellite Launch Center

Loading…

Następne Przeloty (najbliższe 24 godziny)

TLE

ŚwieżeSource: Space-Track

Epoka: Sep 14, 2026, 00:25 UTC

1 60656U 24140BH  26257.01752395  .00034149  00000-0  14541-2 0  9996
2 60656  89.1420 269.2603 0092257 179.1141 181.0286 15.18968410113134

Śledź CZ-6A DEB w czasie rzeczywistym z AllMySat

Download on the App Store